[[{"header":{"parameterUnit":"m.s-1","parameterCategory":1,"la1":30.2991,"la2":30.254,"lo1":-89.0895,"lo2":-89.0444,"dy":0.0017,"dx":0.0017,"nx":28,"ny":28,"refTime":"2025-03-17T21:00:00:Z","depth":0,"parameterNumber":2,"parameterNumberName":"U-component_of_WINDS"},"data":[0,0,0,0,0,0,0,0,0,0,0,0,0,0,0,0,0,0,0,0,0,0,0,0,0,0,0,0,0,0,0,0,0,0,0,0,0,0,0,0,0,0,0,0,0,0,0,0,0,0,0,0,0,0,0,0,0,0,0.6017,0.6017,0,0.6016,0.6016,0.6016,0.5994,0.5994,0.5993,0.5993,0.5991,0.5992,0.5992,0,0,0,0,0,0,0,0,0,0,0,0,0,0.6,0.6001,0.6017,0.6017,0.6017,0.6016,0.6016,0.6016,0.5995,0.5994,0.5993,0.5993,0.5991,0.5991,0.5992,0,0,0,0,0,0,0,0,0,0,0,0,0,0.6004,0.6001,0.6017,0.6006,0.6005,0.6016,0.6016,0.6016,0.5995,0.5994,0.5993,0.5992,0.5991,0.5991,0.5992,0.6013,0,0,0.5994,0.5995,0,0,0,0,0,0,0,0,0.6004,0.6005,0.6008,0.6007,0.6006,0.6005,0.6009,0.6015,0.5995,0.5999,0.5993,0.5992,0.5996,0.5996,0.5998,0.6013,0.6013,0.5994,0.5995,0.5995,0.5995,0,0,0,0,0,0,0,0.6004,0.6005,0.6017,0.6008,0.6007,0.6001,0.6001,0.601,0.6002,0.5998,0.5997,0.5997,0.5996,0.5997,0.5998,0.6013,0.5994,0.5995,0.5995,0.5996,0.6043,0.6044,0,0,0,0,0,0,0.6005,0.6005,0.6017,0.6017,0.6003,0.6002,0.6002,0.6006,0.6002,0.6001,0.5998,0.5996,0.5997,0.5997,0.5998,0.6021,0.5995,0.5996,0.5996,0.6043,0.6044,0.6045,0,0,0,0,0,0,0.6005,0.6006,0.6017,0.601,0.6011,0.6003,0.6008,0.6006,0.6008,0.6001,0.6,0.6001,0.5996,0.5997,0.6009,0.6021,0.5996,0.5997,0.6042,0.6043,0.6044,0.6068,0,0,0,0,0,0,0.6004,0.6006,0.6015,0.6011,0.6012,0.6029,0.6009,0.6007,0.6009,0.6007,0.6004,0.6003,0.5995,0.6008,0.601,0.6021,0.5997,0.604,0.6042,0.6044,0.6066,0.607,0.6073,0,0,0,0,0,0.6004,0.6022,0.6015,0.6017,0.6022,0.603,0.603,0.6021,0.601,0.6018,0.6014,0.6003,0.6019,0.601,0.6011,0.6023,0.604,0.6042,0.6044,0.6065,0.6069,0.6073,0,0,0,0,0,0,0.6027,0.6021,0.6014,0.6031,0.6031,0.6026,0.6036,0.6026,0.6029,0.6027,0.6016,0.6015,0.6029,0.6027,0.6017,0.6042,0.6027,0.603,0.6043,0.6047,0.6051,0.6051,0.5998,0,0,0,0,0,0.6034,0.6041,0.6035,0.6051,0.6051,0.6044,0.6047,0.604,0.6039,0.6039,0.6036,0.6035,0.604,0.6044,0.6048,0.6066,0.6064,0.6075,0.6078,0.6081,0.6083,0.6092,0.6096,0.6051,0.6051,0.6051,0,0,0.6049,0.6047,0.6052,0.6056,0.6055,0.6062,0.6044,0.6052,0.6057,0.604,0.6052,0.6049,0.6048,0.6063,0.6069,0.6062,0.6095,0.6084,0.6086,0.6086,0.6094,0.6098,0.6102,0.6052,0.6052,0.6052,0,0,0.608,0.6079,0.6091,0.6091,0.6089,0.6084,0.6087,0.6083,0.6081,0.6092,0.6079,0.6085,0.6094,0.6093,0.6094,0.6123,0.6113,0.6125,0.6143,0.6152,0.6155,0.6158,0.6168,0.6172,0.6127,0.6127,0.6127,0,0.6098,0.6108,0.6099,0.6108,0.6109,0.6094,0.6106,0.6106,0.6107,0.6108,0.6099,0.611,0.6108,0.6122,0.6129,0.6131,0.6133,0.6125,0.6155,0.6158,0.6161,0.617,0.6174,0.6129,0.6128,0.6128,0.6128,0,0.6131,0.6138,0.6148,0.6149,0.6151,0.6162,0.6153,0.6157,0.615,0.6145,0.6156,0.6153,0.6156,0.6159,0.6152,0.6172,0.6167,0.6158,0.6142,0.6167,0.6175,0.6179,0.6131,0.613,0.613,0.6129,0,0,0.6176,0.617,0.6174,0.6174,0.6171,0.6176,0.6186,0.6189,0.6192,0.6193,0.62,0.6207,0.6198,0.6199,0.6191,0.6199,0.6221,0.6188,0.6187,0.6193,0.6242,0.6249,0.6253,0.6214,0.6215,0.6216,0.6242,0,0.6205,0.6221,0.6212,0.6229,0.6235,0.622,0.6228,0.6227,0.6223,0.6227,0.6222,0.6227,0.6215,0.6215,0.6222,0.6217,0.6231,0.6215,0.622,0.6221,0.6221,0.6258,0.6265,0.629,0.6245,0.6245,0.6246,0,0.624,0.6242,0.626,0.6255,0.6257,0.6265,0.6266,0.627,0.6269,0.6265,0.6266,0.6256,0.6265,0.625,0.6261,0.6251,0.6252,0.625,0.6251,0.6251,0.6234,0.6258,0.6298,0.6301,0.6251,0.6251,0.625,0,0.627,0.6277,0.6288,0.6288,0.6283,0.6289,0.6287,0.6284,0.6286,0.6288,0.6288,0.6291,0.6292,0.6294,0.6285,0.6275,0.6297,0.6282,0.6293,0.6294,0.6298,0.6298,0.6338,0.6301,0.63,0.63,0.63,0,0.6303,0.6314,0.6301,0.6308,0.632,0.6309,0.6321,0.6318,0.6316,0.6321,0.6309,0.6314,0.6303,0.6307,0.63,0.631,0.631,0.6307,0.6305,0.6308,0.6308,0.6308,0.6306,0.6301,0.6301,0.6301,0.6301,0,0.6338,0.6331,0.6341,0.6336,0.6334,0.6343,0.6338,0.6344,0.6338,0.6345,0.6346,0.6338,0.6342,0.6334,0.6337,0.6332,0.6346,0.6341,0.6346,0.6345,0.6356,0.6355,0.6398,0.6403,0.6363,0.6363,0.6363,0,0.6359,0.6367,0.6362,0.6365,0.6363,0.6368,0.637,0.636,0.6362,0.636,0.6366,0.6369,0.6371,0.6378,0.6372,0.6374,0.6369,0.6384,0.6369,0.6371,0.6368,0.6367,0.6368,0.6387,0.6387,0.6388,0.6388,0,0.6397,0.6392,0.6395,0.6397,0.6399,0.64,0.6399,0.6402,0.6391,0.6394,0.6398,0.64,0.6402,0.6405,0.6406,0.6404,0.6394,0.6393,0.6395,0.6398,0.64,0.6398,0.6354,0.6392,0.6391,0.6391,0.6391,0.6391,0.6425,0.6431,0.6428,0.6431,0.643,0.643,0.6435,0.643,0.6433,0.6434,0.6428,0.6433,0.643,0.643,0.6429,0.6432,0.6426,0.643,0.6431,0.6432,0.6433,0.64,0.6433,0.6432,0.6432,0.6432,0.6432,0,0.6461,0.6458,0.6461,0.6461,0.6464,0.6454,0.6453,0.6456,0.6461,0.6459,0.6461,0.6465,0.6467,0.6462,0.6463,0.6467,0.6463,0.6468,0.6467,0.6467,0.644,0.6437,0.6471,0.6471,0.6471,0.6471,0.6471,0.6471,0.648,0.6489,0.6484,0.6493,0.649,0.6495,0.6495,0.6494,0.6493,0.6498,0.65,0.6496,0.6492,0.6494,0.6495,0.6494,0.6494,0.6501,0.6498,0.6472,0.6469,0.6465,0.6462,0.6502,0.6502,0.6524,0.6524,0.6524]},{"header":{"parameterUnit":"m.s-1","parameterCategory":1,"la1":30.2991,"la2":30.254,"lo1":-89.0895,"lo2":-89.0444,"dy":0.0017,"dx":0.0017,"nx":28,"ny":28,"refTime":"2025-03-17T21:00:00:Z","depth":0,"parameterNumber":3,"parameterNumberName":"V-component_of_WINDS"},"data":[0,0,0,0,0,0,0,0,0,0,0,0,0,0,0,0,0,0,0,0,0,0,0,0,0,0,0,0,0,0,0,0,0,0,0,0,0,0,0,0,0,0,0,0,0,0,0,0,0,0,0,0,0,0,0,0,0,0,6.2187,6.2188,0,6.2276,6.2277,6.2278,6.2231,6.2229,6.2226,6.2224,6.2314,6.2318,6.2323,0,0,0,0,0,0,0,0,0,0,0,0,0,6.1975,6.1979,6.2187,6.2189,6.219,6.2276,6.2277,6.2279,6.2231,6.2228,6.2226,6.2223,6.2312,6.2317,6.2323,0,0,0,0,0,0,0,0,0,0,0,0,0,6.2066,6.1981,6.2187,6.2177,6.2176,6.2276,6.2277,6.2279,6.2232,6.2228,6.2225,6.2221,6.231,6.2317,6.2324,6.2438,0,0,6.2345,6.2348,0,0,0,0,0,0,0,0,6.2061,6.2074,6.2177,6.2177,6.2178,6.2239,6.2235,6.2332,6.2233,6.2211,6.2224,6.222,6.2292,6.23,6.2324,6.2443,6.2446,6.2346,6.235,6.2353,6.2355,0,0,0,0,0,0,0,6.2055,6.207,6.2222,6.2179,6.2179,6.2167,6.2176,6.2254,6.227,6.2213,6.2209,6.2221,6.2291,6.2318,6.2326,6.2448,6.2345,6.2351,6.2356,6.2358,6.2665,6.2668,0,0,0,0,0,0,6.2049,6.2065,6.222,6.2225,6.2109,6.2174,6.2184,6.2223,6.2269,6.2273,6.2224,6.2218,6.2308,6.2318,6.2329,6.2466,6.2353,6.2359,6.2363,6.2661,6.2665,6.267,0,0,0,0,0,0,6.2045,6.2064,6.2216,6.2144,6.2163,6.2181,6.2226,6.2226,6.2253,6.2278,6.228,6.2248,6.2305,6.2319,6.2412,6.2469,6.2362,6.2369,6.2656,6.2662,6.2668,6.2742,0,0,0,0,0,0,6.2039,6.2062,6.2106,6.2146,6.2167,6.2298,6.2229,6.2231,6.2265,6.2259,6.2301,6.2305,6.2303,6.2402,6.2419,6.2476,6.2374,6.2651,6.2659,6.2666,6.2734,6.275,6.2763,0,0,0,0,0,6.2032,6.2124,6.2109,6.2128,6.2222,6.2301,6.2313,6.2311,6.227,6.2314,6.233,6.2303,6.246,6.2411,6.243,6.2491,6.2647,6.2656,6.2665,6.2728,6.2747,6.2762,0,0,0,0,0,0,6.209,6.2128,6.2113,6.222,6.2258,6.2293,6.2349,6.233,6.238,6.2372,6.2366,6.2376,6.2472,6.249,6.2436,6.2604,6.2547,6.256,6.2589,6.2607,6.262,6.2614,6.238,0,0,0,0,0,6.2116,6.2177,6.2207,6.2299,6.2319,6.2331,6.2365,6.236,6.2398,6.2414,6.2436,6.2475,6.2532,6.257,6.2625,6.2737,6.2745,6.2788,6.2802,6.2813,6.2825,6.2886,6.2905,6.2699,6.2699,6.2699,0,0,6.2169,6.2197,6.2236,6.2311,6.234,6.2403,6.2344,6.2414,6.2461,6.2424,6.2513,6.2531,6.2573,6.2676,6.2722,6.2694,6.2884,6.2825,6.2834,6.2839,6.2897,6.2916,6.2934,6.2705,6.2704,6.2703,0,0,6.2298,6.2326,6.2405,6.2435,6.2479,6.2487,6.2506,6.2545,6.2555,6.2644,6.2618,6.2674,6.2773,6.2804,6.2833,6.2974,6.2952,6.2992,6.3066,6.3125,6.3142,6.3156,6.3206,6.3225,6.3003,6.3004,6.3004,0,6.2358,6.2453,6.2448,6.252,6.2554,6.2524,6.2604,6.2633,6.2693,6.2717,6.2685,6.281,6.2836,6.2946,6.298,6.3004,6.3026,6.2987,6.314,6.3154,6.3167,6.3215,6.3234,6.3008,6.3008,6.3007,6.3007,0,6.2524,6.2591,6.2649,6.2708,6.2749,6.2824,6.2831,6.2872,6.2863,6.2874,6.2965,6.2996,6.3056,6.3082,6.3073,6.3191,6.3172,6.314,6.3083,6.3192,6.3237,6.3255,6.3015,6.3013,6.3012,6.3011,0,0,6.2693,6.2749,6.277,6.2797,6.2843,6.2894,6.2968,6.3028,6.3063,6.3105,6.3167,6.3252,6.3223,6.3256,6.3251,6.3303,6.3413,6.3265,6.3266,6.3292,6.3544,6.3568,6.3589,6.3398,6.3402,6.3405,6.3541,0,6.2825,6.2955,6.2953,6.3074,6.3135,6.3108,6.3172,6.3208,6.322,6.3273,6.3286,6.3346,6.3303,6.3323,6.3373,6.3389,6.3464,6.3379,6.3456,6.3459,6.3446,6.3613,6.3638,6.3765,6.3558,6.3561,6.3563,0,6.2997,6.3045,6.3172,6.321,6.3235,6.3293,6.3348,6.3399,6.3438,6.3443,6.3481,6.3468,6.3543,6.3483,6.3586,6.3529,6.356,6.3573,6.3577,6.3584,6.3518,6.3625,6.3806,6.3825,6.3591,6.3589,6.3587,0,6.3107,6.3204,6.3292,6.3315,6.3362,6.3403,6.3424,6.346,6.3496,6.3544,6.3567,6.3622,6.3653,6.3696,6.3698,6.3654,6.3802,6.3743,6.3808,6.3809,6.3841,6.3839,6.403,6.3861,6.3861,6.386,6.386,0,6.3255,6.3334,6.3342,6.3397,6.3484,6.3481,6.3567,6.3584,6.3617,6.3674,6.3653,6.3707,6.3707,6.3762,6.3764,6.3849,6.3863,6.3869,6.3869,6.3871,6.387,6.3891,6.3883,6.3865,6.3864,6.3863,6.3862,0,6.3393,6.3402,6.3496,6.3533,6.3543,6.3606,6.3637,6.3689,6.3699,6.3771,6.3788,6.3804,6.3868,6.3874,6.3948,6.3949,6.4053,6.4043,6.4039,6.4038,6.4103,6.4097,6.4314,6.4343,6.4155,6.4157,6.4159,0,6.3487,6.3547,6.359,6.3626,6.365,6.371,6.3746,6.3745,6.3784,6.3834,6.388,6.3941,6.399,6.4093,6.4111,6.4168,6.4159,6.4231,6.4167,6.4168,6.4161,6.4157,6.4163,6.4244,6.4246,6.4248,6.4249,0,6.3653,6.3654,6.3708,6.3763,6.3808,6.3851,6.3892,6.3923,6.3927,6.3972,6.4037,6.4075,6.4151,6.4212,6.4268,6.4289,6.427,6.4269,6.4287,6.429,6.4286,6.429,6.4073,6.4264,6.4262,6.4261,6.4261,6.426,6.3772,6.3824,6.3862,6.3922,6.3953,6.3992,6.4042,6.4058,6.4113,6.4174,6.417,6.4242,6.428,6.4353,6.4378,6.4434,6.441,6.4437,6.4443,6.445,6.4457,6.4277,6.4444,6.4444,6.4444,6.4443,6.4443,0,6.3937,6.396,6.4015,6.4073,6.4121,6.4099,6.4143,6.4184,6.4248,6.4285,6.4334,6.4408,6.4468,6.4491,6.4549,6.459,6.4582,6.4605,6.4602,6.4607,6.4475,6.4453,6.461,6.461,6.461,6.461,6.461,6.461,6.4028,6.4115,6.4121,6.4223,6.4245,6.4316,6.4343,6.4378,6.4408,6.4492,6.4542,6.4556,6.4588,6.4648,6.4702,6.4707,6.473,6.4756,6.4758,6.4633,6.4617,6.4601,6.458,6.4761,6.4761,6.4885,6.4887,6.4887]}]]